EN

Hourly Weather Ploskow

Today, 21 October, Wednesday

Time Temperature Precipitation Wind Pressure Humidity
00:00 +7°C° 0 mm 5 mps 750 mmHg 82%
01:00 +7°C° 0 mm 5 mps 750 mmHg 82%
02:00 +7°C° 0 mm 4 mps 749 mmHg 82%
03:00 +6°C° 0 mm 4 mps 749 mmHg 81%
04:00 +6°C° 0 mm 5 mps 748 mmHg 80%
05:00 +6°C° 0 mm 5 mps 748 mmHg 79%
06:00 +6°C° 0 mm 5 mps 748 mmHg 77%
07:00 +7°C° 0 mm 5 mps 747 mmHg 74%
08:00 +7°C° 0 mm 5 mps 747 mmHg 71%
09:00 +8°C° 0 mm 5 mps 747 mmHg 69%
10:00 +9°C° 0 mm 6 mps 747 mmHg 67%
11:00 +10°C° 0 mm 6 mps 747 mmHg 64%
12:00 +10°C° 0 mm 5 mps 747 mmHg 64%
13:00 +10°C° 0 mm 5 mps 747 mmHg 64%
14:00 +11°C° 0 mm 4 mps 747 mmHg 64%
15:00 +11°C° 0 mm 4 mps 747 mmHg 65%
16:00 +11°C° 0 mm 4 mps 747 mmHg 66%
17:00 +10°C° 0 mm 3 mps 746 mmHg 67%
18:00 +10°C° 0 mm 3 mps 746 mmHg 68%
19:00 +10°C° 0 mm 3 mps 747 mmHg 69%
20:00 +10°C° 0 mm 2 mps 747 mmHg 70%
21:00 +10°C° 0 mm 3 mps 747 mmHg 71%
22:00 +10°C° 0 mm 3 mps 747 mmHg 72%
23:00 +10°C° 0 mm 4 mps 746 mmHg 73%

Tomorrow, 22 October, Thursday

Time Temperature Precipitation Wind Pressure Humidity
00:00 +10°C° 0 mm 4 mps 747 mmHg 75%
01:00 +8°C° 0 mm 4 mps 747 mmHg 77%
02:00 +8°C° 0 mm 4 mps 747 mmHg 78%
03:00 +8°C° 0 mm 4 mps 747 mmHg 80%
04:00 +8°C° 0 mm 4 mps 746 mmHg 81%
05:00 +8°C° 0 mm 4 mps 746 mmHg 82%
06:00 +8°C° 0 mm 5 mps 746 mmHg 82%
07:00 +8°C° 0 mm 5 mps 746 mmHg 81%
08:00 +9°C° 0 mm 5 mps 746 mmHg 81%
09:00 +10°C° 0 mm 6 mps 746 mmHg 75%
10:00 +13°C° 0 mm 6 mps 747 mmHg 70%
11:00 +14°C° 0 mm 7 mps 747 mmHg 65%
12:00 +15°C° 0 mm 6 mps 747 mmHg 63%
13:00 +16°C° 0 mm 6 mps 747 mmHg 61%
14:00 +17°C° 0 mm 6 mps 747 mmHg 60%
15:00 +16°C° 0 mm 5 mps 747 mmHg 64%
16:00 +15°C° 0 mm 5 mps 747 mmHg 68%
17:00 +15°C° 0 mm 4 mps 747 mmHg 72%
18:00 +14°C° 0 mm 4 mps 747 mmHg 75%
19:00 +13°C° 0 mm 4 mps 747 mmHg 78%
20:00 +13°C° 0 mm 3 mps 747 mmHg 81%
21:00 +13°C° 0 mm 3 mps 747 mmHg 81%
22:00 +13°C° 0 mm 3 mps 747 mmHg 82%
23:00 +13°C° 0 mm 3 mps 747 mmHg 82%

Day after tomorrow, 23 October, Friday

Time Temperature Precipitation Wind Pressure Humidity
00:00 +12°C° 0 mm 3 mps 747 mmHg 83%
01:00 +12°C° 0 mm 3 mps 747 mmHg 84%
02:00 +12°C° 0 mm 3 mps 747 mmHg 85%
03:00 +12°C° 0 mm 3 mps 747 mmHg 85%
04:00 +11°C° 0 mm 3 mps 746 mmHg 85%
05:00 +11°C° 0 mm 3 mps 746 mmHg 85%
06:00 +11°C° 0 mm 4 mps 746 mmHg 84%
07:00 +11°C° 0 mm 4 mps 745 mmHg 82%
08:00 +12°C° 0 mm 5 mps 745 mmHg 80%
09:00 +13°C° 0 mm 5 mps 745 mmHg 77%
10:00 +13°C° 0 mm 5 mps 745 mmHg 73%
11:00 +14°C° 0 mm 5 mps 745 mmHg 70%
12:00 +15°C° 0 mm 5 mps 745 mmHg 69%
13:00 +15°C° 0 mm 4 mps 745 mmHg 69%
14:00 +17°C° 0 mm 4 mps 744 mmHg 68%
15:00 +15°C° 0 mm 4 mps 744 mmHg 71%
16:00 +16°C° 0 mm 3 mps 744 mmHg 74%
17:00 +14°C° 0 mm 3 mps 744 mmHg 77%
18:00 +13°C° 0 mm 3 mps 744 mmHg 79%
19:00 +13°C° 0 mm 3 mps 744 mmHg 82%
20:00 +12°C° 0 mm 3 mps 744 mmHg 85%
21:00 +12°C° 0 mm 3 mps 744 mmHg 87%
22:00 +12°C° 0 mm 2 mps 744 mmHg 90%
23:00 +12°C° 0 mm 2 mps 744 mmHg 92%

24 October, Saturday

Time Temperature Precipitation Wind Pressure Humidity
00:00 +12°C° 0 mm 2 mps 744 mmHg 92%
01:00 +12°C° 0 mm 2 mps 744 mmHg 93%
02:00 +12°C° 0 mm 2 mps 744 mmHg 93%
03:00 +12°C° 0.1 mm 2 mps 744 mmHg 93%
04:00 +12°C° 0.1 mm 2 mps 744 mmHg 93%
05:00 +12°C° 0.1 mm 2 mps 744 mmHg 93%
06:00 +12°C° 0.6 mm 2 mps 744 mmHg 94%
07:00 +12°C° 0.6 mm 2 mps 744 mmHg 96%
08:00 +12°C° 0.6 mm 2 mps 744 mmHg 97%
09:00 +11°C° 1.1 mm 3 mps 744 mmHg 96%
10:00 +12°C° 1.1 mm 3 mps 744 mmHg 96%
11:00 +12°C° 1.1 mm 3 mps 744 mmHg 96%
12:00 +13°C° 0.1 mm 4 mps 744 mmHg 91%
13:00 +13°C° 0.1 mm 4 mps 744 mmHg 87%
14:00 +14°C° 0.1 mm 5 mps 744 mmHg 82%
15:00 +13°C° 0 mm 5 mps 744 mmHg 82%
16:00 +13°C° 0 mm 5 mps 744 mmHg 82%
17:00 +11°C° 0 mm 6 mps 744 mmHg 82%
18:00 +12°C° 0 mm 5 mps 745 mmHg 82%
19:00 +11°C° 0 mm 4 mps 746 mmHg 83%
20:00 +10°C° 0 mm 4 mps 746 mmHg 84%
21:00 +10°C° 0 mm 4 mps 747 mmHg 86%
22:00 +8°C° 0 mm 4 mps 747 mmHg 87%
23:00 +8°C° 0 mm 4 mps 747 mmHg 89%

25 October, Sunday

Time Temperature Precipitation Wind Pressure Humidity
00:00 +8°C° 0 mm 3 mps 748 mmHg 89%
01:00 +8°C° 0 mm 3 mps 748 mmHg 89%
02:00 +7°C° 0 mm 3 mps 748 mmHg 90%
03:00 +7°C° 0 mm 2 mps 748 mmHg 90%
04:00 +6°C° 0 mm 2 mps 748 mmHg 91%
05:00 +6°C° 0 mm 2 mps 749 mmHg 91%
06:00 +6°C° 0 mm 2 mps 749 mmHg 91%
07:00 +7°C° 0 mm 1 mps 749 mmHg 90%
08:00 +7°C° 0 mm 1 mps 749 mmHg 90%
09:00 +8°C° 0 mm 2 mps 749 mmHg 83%
10:00 +9°C° 0 mm 2 mps 749 mmHg 77%
11:00 +11°C° 0 mm 3 mps 749 mmHg 70%
12:00 +12°C° 0 mm 3 mps 749 mmHg 68%
13:00 +12°C° 0 mm 3 mps 749 mmHg 66%
14:00 +13°C° 0 mm 3 mps 749 mmHg 63%
15:00 +12°C° 0 mm 3 mps 748 mmHg 68%
16:00 +12°C° 0 mm 3 mps 748 mmHg 73%
17:00 +11°C° 0 mm 3 mps 748 mmHg 78%
18:00 +10°C° 0 mm 3 mps 748 mmHg 80%
19:00 +10°C° 0 mm 3 mps 748 mmHg 83%
20:00 +8°C° 0 mm 4 mps 748 mmHg 85%
21:00 +8°C° 0 mm 4 mps 748 mmHg 87%
22:00 +8°C° 0 mm 4 mps 748 mmHg 89%
23:00 +8°C° 0 mm 4 mps 748 mmHg 90%

26 October, Monday

Time Temperature Precipitation Wind Pressure Humidity
00:00 +8°C° 0 mm 4 mps 748 mmHg 90%
01:00 +8°C° 0 mm 4 mps 748 mmHg 89%
02:00 +7°C° 0 mm 4 mps 748 mmHg 89%
03:00 +7°C° 0 mm 4 mps 747 mmHg 89%
04:00 +7°C° 0 mm 4 mps 747 mmHg 90%
05:00 +7°C° 0 mm 4 mps 747 mmHg 90%
06:00 +7°C° 0 mm 4 mps 747 mmHg 90%
07:00 +6°C° 0 mm 4 mps 747 mmHg 90%
08:00 +6°C° 0 mm 5 mps 747 mmHg 90%
09:00 +8°C° 0 mm 5 mps 747 mmHg 85%
10:00 +9°C° 0 mm 5 mps 747 mmHg 80%
11:00 +12°C° 0 mm 5 mps 747 mmHg 75%
12:00 +13°C° 0 mm 5 mps 746 mmHg 72%
13:00 +14°C° 0 mm 6 mps 746 mmHg 69%
14:00 +15°C° 0 mm 6 mps 746 mmHg 66%
15:00 +14°C° 0 mm 5 mps 746 mmHg 69%
16:00 +13°C° 0 mm 5 mps 745 mmHg 72%
17:00 +12°C° 0 mm 5 mps 745 mmHg 75%
18:00 +12°C° 0 mm 5 mps 745 mmHg 76%
19:00 +12°C° 0 mm 5 mps 745 mmHg 76%
20:00 +10°C° 0 mm 5 mps 745 mmHg 77%
21:00 +10°C° 0 mm 5 mps 745 mmHg 78%
22:00 +9°C° 0 mm 5 mps 745 mmHg 78%
23:00 +9°C° 0 mm 5 mps 745 mmHg 79%

27 October, Tuesday

Time Temperature Precipitation Wind Pressure Humidity
00:00 +9°C° 0 mm 5 mps 745 mmHg 78%
01:00 +9°C° 0 mm 5 mps 745 mmHg 77%
02:00 +9°C° 0 mm 5 mps 745 mmHg 76%
03:00 +9°C° 0 mm 5 mps 745 mmHg 76%
04:00 +9°C° 0 mm 5 mps 745 mmHg 76%
05:00 +9°C° 0 mm 5 mps 745 mmHg 75%
06:00 +8°C° 0 mm 5 mps 745 mmHg 77%
07:00 +8°C° 0 mm 5 mps 745 mmHg 79%
08:00 +8°C° 0 mm 4 mps 745 mmHg 81%
09:00 +10°C° 0 mm 4 mps 745 mmHg 79%
10:00 +11°C° 0 mm 4 mps 746 mmHg 76%
11:00 +12°C° 0 mm 4 mps 746 mmHg 74%
12:00 +13°C° 0 mm 4 mps 746 mmHg 72%
13:00 +14°C° 0 mm 4 mps 746 mmHg 70%
14:00 +15°C° 0 mm 4 mps 746 mmHg 67%
15:00 +14°C° 0 mm 4 mps 746 mmHg 71%
16:00 +13°C° 0 mm 4 mps 746 mmHg 75%
17:00 +13°C° 0 mm 3 mps 747 mmHg 79%
18:00 +12°C° 0 mm 3 mps 747 mmHg 82%
19:00 +11°C° 0 mm 3 mps 747 mmHg 84%
20:00 +10°C° 0 mm 3 mps 747 mmHg 87%
21:00 +10°C° 0 mm 3 mps 748 mmHg 89%
22:00 +10°C° 0 mm 2 mps 748 mmHg 91%
23:00 +9°C° 0 mm 2 mps 748 mmHg 92%
Show more

We Need Your Consent

Meteoprog and our Service Providers may store and access personal data such as cookies, device identifiers or other similar technologies on your device and process such data to personalise content and ads, as well as provide social media features and to analyse the traffic.

  • Store and/or access information on your device

    Cookies, device identifiers or other information can be stored or accessed on your device for the purposes indicated above.

  • Personalised ads and content, ad and content measurement, audience insights, and products development

    Ads and content can be personalised based on a profile. More data can be added to better personalise ads and content. Ad and content performance can be measured. Insights about the audience who saw the ads and content can be derived. Such data can be used to develop or improve user’s experience, systems and software.

By clicking ‘I Agree’ you will allow the use of indicated cookies, device identifiers, web beacons or other similar technologies. Your settings can be changed in the browser on your device.

For certain purposes, legitimate interests may be relied on, rather than consent. You can read more about this in our Privacy and Cookie Policy.